Location: Zlin
(49.2330°N, 17.6670°E)
Time: 12:58:39
(UTC+02:00)

ISS - Visible Passes

Search period start: 28 July 2017 00:00
Search period end: 07 August 2017 00:00
Orbit: 400 x 408 km, 51.6° (Epoch: 28 July)

Date Brightness Start Highest point End Pass type
(mag) Time Alt. Az. Time Alt. Az. Time Alt. Az.
28 Jul -2.5 00:44:59 10° WNW 00:46:57 33° WNW 00:46:57 33° WNW visible
28 Jul -3.3 22:15:59 10° W 22:19:13 60° N 22:22:27 10° ENE visible
28 Jul -3.5 23:52:41 10° WNW 23:55:55 62° N 23:56:09 60° NE visible
29 Jul -3.6 21:23:36 10° WSW 21:26:51 74° NNW 21:30:07 10° ENE visible
29 Jul -3.2 23:00:20 10° WNW 23:03:33 55° N 23:05:23 22° ENE visible
30 Jul -1.7 00:36:53 10° WNW 00:38:01 20° WNW 00:38:01 20° WNW visible
30 Jul -3.1 22:07:57 10° W 22:11:09 53° N 22:14:21 10° ENE visible
30 Jul -3.5 23:44:32 10° WNW 23:47:17 60° WNW 23:47:17 60° WNW visible
31 Jul -3.2 21:15:31 10° W 21:18:44 57° N 21:21:57 10° ENE visible
31 Jul -3.6 22:52:11 10° WNW 22:55:26 67° NNE 22:56:35 36° E visible
01 Aug -1.1 00:28:47 10° W 00:29:12 13° W 00:29:12 13° W visible
01 Aug -3.3 21:59:49 10° WNW 22:03:02 56° N 22:05:54 12° E visible
01 Aug -2.7 23:36:21 10° WNW 23:38:30 36° W 23:38:30 36° W visible
02 Aug -3.1 21:07:24 10° WNW 21:10:35 53° N 21:13:48 10° E visible
02 Aug -4.0 22:43:58 10° WNW 22:47:14 85° SSW 22:47:51 55° ESE visible
03 Aug -3.7 21:51:35 10° WNW 21:54:51 72° NNE 21:57:11 17° E visible
03 Aug -2.0 23:28:13 10° W 23:29:49 22° WSW 23:29:49 22° WSW visible
04 Aug -3.3 20:59:10 10° WNW 21:02:24 59° N 21:05:38 10° E visible
04 Aug -3.6 22:35:42 10° WNW 22:38:53 50° SSW 22:39:10 48° S visible
05 Aug -3.9 21:43:16 10° WNW 21:46:32 76° SSW 21:48:33 21° ESE visible
05 Aug -1.3 23:20:23 10° W 23:21:11 13° WSW 23:21:11 13° WSW visible
06 Aug -2.6 22:27:33 10° W 22:30:22 27° SW 22:30:35 27° SSW visible
